This is the latest recevied weather packets stored in our database for station/object F4GSP-4. If no packets are shown the sender has not sent any weather packets the latest 10 day(s).
| Time | Temp. | Humidity | Pressure | Rain* | Wind** | Luminosity | Snow |
|---|---|---|---|---|---|---|---|
| 1778023381 | 8.33° C | 57% | 1021.7 hPa | - | - | - | - |
| 1778022481 | 8.33° C | 57% | 1022.1 hPa | - | - | - | - |
| 1778021581 | 8.33° C | 57% | 1022.2 hPa | - | - | - | - |
| 1778020681 | 8.33° C | 57% | 1022.1 hPa | - | - | - | - |
| 1778019781 | 8.33° C | 57% | 1022.5 hPa | - | - | - | - |
| 1778018881 | 8.33° C | 57% | 1022.6 hPa | - | - | - | - |
| 1778017981 | 8.33° C | 57% | 1022.8 hPa | - | - | - | - |
| 1778017080 | 8.33° C | 56% | 1023.2 hPa | - | - | - | - |
| 1778016180 | 8.33° C | 56% | 1023.2 hPa | - | - | - | - |
| 1778015280 | 8.89° C | 56% | 1023.3 hPa | - | - | - | - |
| 1778014380 | 8.89° C | 56% | 1023.6 hPa | - | - | - | - |
| 1778013480 | 8.89° C | 56% | 1023.4 hPa | - | - | - | - |
| 1778012580 | 8.89° C | 55% | 1023.6 hPa | - | - | - | - |
| 1778011679 | 9.44° C | 55% | 1023.5 hPa | - | - | - | - |
| 1778010779 | 9.44° C | 55% | 1023.3 hPa | - | - | - | - |
| 1778009879 | 10° C | 55% | 1023.2 hPa | - | - | - | - |
| 1778008979 | 10° C | 54% | 1022.8 hPa | - | - | - | - |
| 1778008079 | 11.11° C | 53% | 1022.6 hPa | - | - | - | - |
| 1778007179 | 11.67° C | 53% | 1022.3 hPa | - | - | - | - |
| 1778006278 | 12.78° C | 53% | 1021.8 hPa | - | - | - | - |
| 1778005378 | 13.33° C | 53% | 1021.5 hPa | - | - | - | - |
| 1778004477 | 14.44° C | 53% | 1021.5 hPa | - | - | - | - |
| 1778003577 | 15° C | 53% | 1021.4 hPa | - | - | - | - |
| 1778002677 | 17.78° C | 52% | 1021.5 hPa | - | - | - | - |
| 1778001777 | 21.67° C | 53% | 1021.2 hPa | - | - | - | - |
* Rain since midnight (hover to see other rain measurements)
** Current wind speed in m/s (hover to see current wind gust speed)